This is the latest recevied weather packets stored in our database for station/object YO8SDE-8. If no packets are shown the sender has not sent any weather packets the latest 1 day(s).
| Time | Temp. | Humidity | Pressure | Rain* | Wind** | Luminosity | Snow |
|---|---|---|---|---|---|---|---|
| 1777978560 | 35° C | 20% | 1001.7 hPa | 0 mm | 0 m/s | - | - |
| 1777978260 | 36.11° C | 19% | 1001.8 hPa | 0 mm | 0 m/s | - | - |
| 1777977960 | 34.44° C | 20% | 1001.7 hPa | 0 mm | 0 m/s | - | - |
| 1777977660 | 34.44° C | 21% | 1001.9 hPa | 0 mm | 0 m/s | - | - |
| 1777977360 | 33.89° C | 21% | 1001.9 hPa | 0 mm | 0 m/s | - | - |
| 1777977060 | 35° C | 20% | 1002 hPa | 0 mm | 1.79 m/s, 135° | - | - |
| 1777976760 | 36.11° C | 20% | 1002 hPa | 0 mm | 1.79 m/s, 112° | - | - |
| 1777976460 | 36.11° C | 20% | 1002.2 hPa | 0 mm | 0 m/s | - | - |
| 1777976160 | 35.56° C | 20% | 1002.3 hPa | 0 mm | 0 m/s | - | - |
| 1777975860 | 34.44° C | 21% | 1002.3 hPa | 0 mm | 0 m/s | - | - |
| 1777975560 | 34.44° C | 21% | 1002.3 hPa | 0 mm | 0 m/s | - | - |
| 1777975260 | 35° C | 21% | 1002.3 hPa | 0 mm | 0 m/s | - | - |
| 1777974960 | 34.44° C | 23% | 1002.5 hPa | 0 mm | 0 m/s | - | - |
| 1777974660 | 33.89° C | 24% | 1002.6 hPa | 0 mm | 0 m/s | - | - |
| 1777974360 | 33.33° C | 24% | 1002.6 hPa | 0 mm | 0 m/s | - | - |
| 1777974060 | 33.89° C | 23% | 1002.6 hPa | 0 mm | 0 m/s | - | - |
| 1777973760 | 34.44° C | 23% | 1002.6 hPa | 0 mm | 0 m/s | - | - |
| 1777973460 | 35.56° C | 23% | 1002.7 hPa | 0 mm | 0 m/s | - | - |
| 1777973160 | 35.56° C | 23% | 1002.6 hPa | 0 mm | 0 m/s | - | - |
| 1777972860 | 35° C | 24% | 1002.8 hPa | 0 mm | 0 m/s | - | - |
| 1777972560 | 35° C | 23% | 1002.9 hPa | 0 mm | 0 m/s | - | - |
| 1777972260 | 35.56° C | 23% | 1002.9 hPa | 0 mm | 0 m/s | - | - |
| 1777971960 | 35° C | 24% | 1002.9 hPa | 0 mm | 0 m/s | - | - |
| 1777971660 | 33.89° C | 25% | 1003 hPa | 0 mm | 0 m/s | - | - |
| 1777971360 | 34.44° C | 26% | 1003.1 hPa | 0 mm | 0 m/s | - | - |
* Rain latest hour (hover to see other rain measurements)
** Current wind speed in m/s (hover to see current wind gust speed)